Retour au catalogue

STRIX-4

ActifScienceVLEO
NORAD 60352·PAYLOAD·🇯🇵 Japan

Lancé Aug 2, 2024 depuis Rocket Lab Launch Complex 1

Loading…

Prochains Passages (prochaines 24 heures)

TLE

FraisSource: Space-Track

Époque: Sep 14, 2026, 15:03 UTC

1 60352U 24137A   26257.62725405  .00015901  00000-0  46100-3 0  9996
2 60352  43.0142 135.1535 0017039 179.8418 180.2444 15.35175783117752

Suivez STRIX-4 en temps réel avec AllMySat

Download on the App Store